[Date Prev][Date Next][Thread Prev][Thread Next][Date Index][Thread Index]

[jamsat-news:1572] jas2info #239


========================   ºÇ¿·¾ðÊó   ==============================

        Last updated ¡§WED.22AUG2001 ¡¡12¡§30(JST)   #239
        
====================================================================
   
  £±¡Ë¥¢¥Þ¥Á¥å¥¢ÄÌ¿®±ÒÀ±¾ðÊ󡢣ƣϥ·¥ê¡¼¥º¤Îµ°Æ»Í×ÁÇ¡¢¥Æ¥ì¥á¥È¥ê¡¢£Ñ£Ó£Ï¤Î
¡¡¡¡¡¡¾õ¶·Åù¤ò¤Þ¤È¤á¤Æ¤ß¤Þ¤·¤¿¡¥
¡¡¡¡¡¡
¡¡¡¡¡¡£Æ£Ï¡Ý£²£¹¤Î£²£°£°£±Ç¯£¸·î£²£²Æü¡Ê¿å¡Ë¤Î£¹¡§£µ£°¡Ê£Ê£Ó£Ô¡Ë¤Î¥Ñ¥¹¤Ç¤Ï
¡¡¡¡£Ê£Á£Ò£Ì¤Î¥Û¡¼¥à¥Ú¡¼¥¸¤Î¤È¤¦¤ê¥¢¥Ê¥í¥°±¿ÍѤǤ·¤¿¡£¡¡º£Æü¤Þ¤Ç¤Î´Ñ¬¤·¤¿
¡¡¡¡¥Æ¥ì¥á¥È¥ê¡¼¤ÈºÇ½ª¤ÎʬÀÏ·ë²Ì¤ò·ÇºÜ¤·¤Æ¤ª¤­¤Þ¤¹.

AS24756C   22AUG2001
9:50-9:53(JST)
FREQ.435.792-790MHz

HI HI AE C7 88 55 00 D4 BE F5 09 01 98 43 6E 65 9E 9C B0 5D 9B 99 9E 9E 9B 
HI HI AE C7 88 55 00 D4 BE F5 09 01 98 40 70 65 9E 9C B0 7A 9B 99 9E 9E 9B 
HI HI AE C7 88 55 00 D4 BE F5 09 01 98 3D 72 65 9E 9C B0 5E 9B 99 9E 9E 9B 
HI HI AE C7 88 55 00 D4 BE F5 09 01 98 3B 73 65 9E 9C B0 4E 9B 99 9E 9E 9B 
HI HI AE C7 88 55 00 D4 BE F5 09 01 97 38 73 65 9E 9C B0 7C 9B 99 8E 9E 9B 
 
AS24729C  20AUG2001
9:43-9:57(JST)
FREQ.435.802-.791MHz
                                                   
HI HI AE C7 88 55 00 D4 BB AB 05 5D 59 59 62 64 9D 9A B0 76 9C 9D 9B 9A 99 
HI HI AE C7 88 55 00 D4 BB AB 09 4D 57 5C 61 64 9D 9A B0 8D 9C 9D  B 9A 99 
HI HI AE C7 88 55 00 D4 BB AB 09 4D 54 5F 61 64 9D 9A B0 94 9D 9D 9B 9A 99
HI HI AE C7 88 55 00 D4 BB AB 09 4D 51 61 5F 64 9D 9A B0 78 9D 9D 9B 9A 99
HI HI AE C7 88 55 00 D4 BB AB 09 4D 4E 63 5F 64 9D 9B B0 73 9D 9D 9B 9A 99 
HI HI AE C7 88 55 00 D4 BB AB 09 4D 4A 64 5F 64 9D 9B B0 6E 9D 9D 9A 9A 99 
HI HI AE C7 88 55 00 D4 BB AB 09 4D 4c 65 60 64 9D 9B B0 6E 9D 9D 9A 9A 99                  
HI HI AE C7 88 55 0O D4 BB AT 09 4D 4E 66 61 65 9D 9B B0 6D 9D 9D 9A 9A 99 
HI HI AE C7 88 55 00 D4 BB AB 09 4D 3F 66 61 65 9D 9B B0 7A 9D 9D 9A 9A 99
HI HI AE C7 88 55 00 D4 BB AB 09 4D 3B 65 61 65 9D 9B B0    9D 9D 9A 9A 99
HI HI AE C7 88 55 00 D4 BB AB 09 4D 38 65 5E 65 9D 9B B0 61 9D 9D 9A 9A 99
HI HI AE C7 88 55 00 D4 BB AB 09 4D 35 64 62 65 9E 9B B0 8C 9E 9D 9A 9A 99
HI HI AE C7 88 55 00 D4 BB AB 08 4D 33 62 65 65 9E 9B B0 5C 9E 9D 9A 9A 99
HI HI AE C7 88 55 00 D4 BB AB 09 4D 3  61 67 65 9E 9B B0 72 9E 9D 9A 9A 9A 
HI HI AE C7 88 55 09 D4 BB AB 09 4D 32 5F 69 66 9E 9B B0    9E 9D 9A 9A 9A   
HI HI AE C7 88 55 00 D4 BB AB 09 4D       66 64 9E 9B B0    9E 9D 9A 9A 9A  
HI HI AE C7 88 55 00 D4 BB AB 09 4D 30 5E 6B 65 9E 9B B0 9B 9E 9D 9A 99 9A 
HI HI AE C7 88 55 00 D4 BB AB 09 4D 31 5D 6D 65 9E 9B B0 47 9E 9D 9A 9A 9A
HI HI AE C7 88 55 00 D4 BB AB 09 4D 43 59 70 65 9E 9B B0 55 9E 9D 9A 99 9A 
HI HI AE C7 88 55 00 D4 BB AB 07 4D 36 5E 74 65 9E 9B B0 4D 8E 9D 9A 99 9A 

AS24599C1   10AUG2001
19:32-19:47(JST)
FREQ.435.804-.788MHz

HI HI AE C7 88 55 00 D4 C8 9E 09 0A 83 4C 43 67 99 97 A6 87 9F 9B 9E A1 9E 
HI HI AE C7 88 55 00 D4 C8 9E 09 0A 7D 43 44 67 98 96 A8 83 9F 9B 9E A1 9E 
HI HI AE C7 88 55 00 D4 C8 9E 09 0A 76 3D 4D 63 9A 97 B0 8B 9F 9B 9E A1 9E 
HI HI AE C7 88 55 00 D4 C8 9E 09 0A 6D 38 4F 63 9B 98 B0 8C 9F 9B 9E A1 9E 
HI HI AE C7 88 55 00 S4 F8 9E 09 0A 63 35 54 64 9C 99 B0 7F 9F 9B 9E A1 9E 
HI HI AE C7 88 55 00 D4 C8 9E 09 0A 5A 35 58 64 9C 9A B0 7F 9F 9B 9E A1 9E  
HI HI AE C7 88 55  0 D4 C8 9E 09 0A 50 37 5B 64 9D 9A B0 7E 9F 9B 9E A1 9E 
HI HI AE C7 88 55 00 D4 C8 9E 09 0A 47 3B 5E 64 9D 9A B0 7E 9F 9B 9E A1 9E 
HI HI AE C7 88 55 00 D4 C8 9E 09 0A 4  40 66 64 9D 9B B0 7E 9F 9B 9E A1 9E 
HI HI AE C7 88 55 00 D4 C8 9E 09 0A 35 48    65 9D 9B B0 76 9F 9B 9E A1 9E 
HI HI AE C7 88 55 00 D4 7D 9E 08 1A          65 9E 9B B0 76 9F 9B 9E A1 9E 
HI HI AE C7 88 55 00 D4 C8 9E 09 0A 55 59 6F 65 9E 9B B0    9F 9B 9E A1 9E 
HI HI AE C7 88 55 00 D4 C8 9E 09 0A 51 56 6A 66 9E 9B B0 7F 9F 9B 9E A1 9E 
HI HI AE C7 88 55 00 D4 C8 8E 09 0A 38 68 6D 64 9E 9B B0 7D 9E 9B 9F A1 9E 
HI HI AE C7 88 55 00 D4 7D B2 09 0A 55 68 65 63 9E 9B B0 89 9E 9B 9F A1 9E
HI HI AE C7 88 55 00 D5 C8 B2 09 0A 40 72 65    9E 9B B0 9O 9F 9B 9E A0 9E
HI HI AE C7 88 55 00 D4 C8 9E 09 0A 45 75 65 65 9E 9B B0 88 9F 6B 9D A0 9E 
HI HI AE C7 88 55 00 D4 7D B2 09 0B 4A 75 66 64 9E 9B B0 63 9F 9B 9D A0 9E 
HI HI AE C7 78 55 00 D4 7D B2 09 0B 4E 74 69 65 9E 9B B0 74 9F 9B 9D A0 9E 
HI HI AE C7 88 55 00 D4 7D B2 09 0B 51 71 6C 65 9E 9B B0 76 9F 9B 9D A0 9E 
HI HI AE C7 88 55 00 D4 7D B2 09 0B 53 6E 6B 65 9E 9B B0    9E 

AS24586C   09AUG2001
11:30-11:44(JST)
FREQ.435.805-.786MHz

HI HI AE C7 88 55 00 D4 72 9B 09 09 78 23 55 65 9E 9B B0 AD 9C 9D A1 9E 9E 
HI HI AE C7 88 55 00 D4 72 9B 09 09 75 25 55    9D 9B B0 80  D 9D A2 9E 9D 
HI HI AE C7 88 55 00 D4 72 9B 09 09 75 27    65 9E 9B B0 87 9D 9D A1 9E 9D 
HI HI AE C7 88 55 00 D4 72 9B 96 09 6E       65 9E 9B B0 87 9D 9D A1 9E 9D 
EI II AE C7 88 55 00 D4 72 9B 09 09 6C 2D    65 9E 9B B0 7E 9D 9C A1 9E 9D 
HI HI AE C7 88 55 00 D4 72 9B 09 09 6A 33    65 9D 9B B0 83 9D 9B A1 9E 9D 
HI HI AE C7 88 55 00 E4 72 9B 09 09 68    7D 65 9E 9B B0 79 9D 9D A1 9E 9D 
HI HI AE C7 88 55 00 D4 72 9B 09 09 67 3D 64 65 9E 9B B0 7F 9D 9C A0 9E 9D 
HI HI AE C7 88 55 00 D4 72 9B 09 09 67          9E 9B B0    9D 9C A0 9E 9D
HI HI AE C7 88 55 00 D4 72 9B 09 09 68 48 68 65 9E 9B B0    9D 9B A0 9E 9D 
HI HI AE C7 88 55 00 D4 72 9B 09 09    4E 6D 65 9E 9B B0 70 8D 9B A0 9E 9D
HI HI AE C7 88 55 00 D4 72 9B 09 09 6B 53 6C 65 9E 9B B0 70 9D 9B A0 9E 9D 
HI HI AE C7 88 55 00 D4 72 9B 09 09 56 57 6D 65 9E 9B B0 5D 9D 9C A0 9E 9D 
HI HI AE C7 88 55 00 D4 72 9B 09 09 72 5B 6E 65 9E 9B B0 6A 9D 9C A0 9E 9D 
HI HI AE C7 88 55 00 D4 72 9B 09 09 76 5E 6D 64 9E 9B B0 88 9D 9B 9F 9F 9D 
HI HI AE C7 88 55 00 D4 72 9B 09 09 7A 60 6E 65 9E 9B B0 85 9E 9B 9F 9F 9D 
HI HI AE C7 88 55 00 D4 72 9B 09 09 7F 61 6E 65 9E 9B B0 5D 9E 9B 9F 9F 9D 
HI HI AE C7 88 55 00 D4 72 9B 87 ¡¡------------------------¡¡£Æ£Ï-£²£¹¤Îµ°Æ»Í×ÁÇ¡¡------------------------------        
 
¡¡¡¡¢£ µ°Æ»Í×ÁÇ£±¡§¡Öjamsat¡Ýkeps¡§£±£°£²£¶¡×¤è¤ê         
¡¡¡¡¡¡¡¡¡¡¡¡¡¡¡¡¡¡¡¡SB KEPS @ AMSAT  $ORB01221.N
¡¡¡¡¡¡¡¡¡¡¡¡¡¡¡¡¡¡¡¡2Line Orbital Elements 01221.AMSAT

HR AMSAT ORBITAL ELEMENTS FOR AMATEUR SATELLITES IN NASA FORMAT
FROM WA5QGD FORT WORTH,TX August 9, 2001
SEND SUBSCRIBE/UNSUBSCRIBE TO majordomo@amsat.org ONLY
BID: ORB01221.N

¡¡DECODE 2-LINE ELSETS WITH THE FOLLOWING KEY:
¡¡1 AAAAAU 00  0  0 BBBBB.BBBBBBBB  .CCCCCCCC  00000-0  00000-0 0  DDDZ
¡¡2 AAAAA EEE.EEEE FFF.FFFF GGGGGGG HHH.HHHH III.IIII JJ.JJJJJJJJKKKKKZ
¡¡KEY: A-CATALOGNUM B-EPOCHTIME C-DECAY D-ELSETNUM E-INCLINATION F-RAAN
¡¡G-ECCENTRICITY H-ARGPERIGEE I-MNANOM J-MNMOTION K-ORBITNUM Z-CHECKSUM

FO-29
1 24278U 96046B   01220.63781453  .00000013  00000-0  51455-4 0 04533
2 24278 098.5353 078.7186 0350153 225.8970 131.2867 13.52778017245735

 ¢£ µ°Æ»Í×ÁÇ£²¡§¡Öjamsat¡Ýkeps¡§£±£°£²£µ¡×¤è¤ê
¡¡¡¡¡¡¡¡¡¡¡¡¡¡¡¡SB KEPS @ AMSAT  $ORB01221.O
¡¡¡¡¡¡¡¡¡¡¡¡¡¡¡¡Orbital Elements  01221.OSCAR

HR AMSAT ORBITAL ELEMENTS FOR OSCAR SATELLITES
FROM WA5QGD FORT WORTH,TX August 9, 2001
SEND SUBSCRIBE/UNSUBSCRIBE TO majordomo@amsat.org ONLY
BID: ORB01221.O
TO ALL RADIO AMATEURS BT
¡¡
Satellite: FO-29
Catalog number: 24278
Epoch time:      01220.63781453
Element set:    0453
Inclination:      098.5353 deg
RA of node:       078.7186 deg
Eccentricity:    0.0350153
Arg of perigee:   225.8970 deg
Mean anomaly:     131.2867 deg
Mean motion:   13.52778017 rev/day
Decay rate:        1.3e-07 rev/day^2
Epoch rev:           24573
Checksum:              313

-------------------¡¡¡¡FO-29¡ÊJAS-2)¤Î¥Æ¥ì¥á¥È¥ê¤Ë´Ø¤¹¤ë¾ðÊó¡¡¡¡----------------------¡¡
¡¡
£²¡Ë¾åµ­£¸·î£²£²Æü¡Ê¿å¡Ë¤Î¥Æ¥ì¥á¥È¥ê¤ÎºÇ½ª¹Ô¤òʬÀϤ·¤Æ¤ª¤­¤Þ¤¹.

AS24756C   22AUG2001
9:50-9:53(JST)
FREQ.435.792-790MHz

HI HI AE C7 88 55 00 D4 BE F5 09 01 97 38 73 65 9E 9C B0 7C 9B 99 8E 9E 9B 

¥Æ¥ì¥á¥È¥ê¡¡  Æâ¡¡ÍÆ¡¡ ¡¡    ´¹»»»»ÃÍ¡¡Ã± °Ì
£³£Ã	¼§µ¤¥»¥ó¥µ¡¼£Ú¼´=	74019.6	[nT]
£³£Ä	¼§µ¤¥»¥ó¥µ£Ø¼´	=	27451.0	[nT]
£´£Á	ÂÀÍÛÅÅÃÓȯÀ¸ÅÅή=	 1127.5	[mA]
£´£Â	£Â½¼ÊüÅÅÅÅή	=	¡¡-20.4	[mA]
£´£Ã	£Âü»ÒÅÅ°µ	=	   17.0	[V]
£´£Ä	£ÂÃæ´Öü»ÒÅÅ°µ	=	    7.5	[V]
£µ£Á	¥Ð¥¹ÅÅ°µ	=	   17.3	[V]
£µ£Â	£Ê£Ô£ÁÁ÷¿®ÅÅÎÏ	=	  707.9	[mW]
£µ£Ã 	¹½Âβ¹ÅÙ£±	=	   21.7	[¡î]
£µ£Ä	¹½Âβ¹ÅÙ£²	=	   22.5	[¡î]
£¶£Á	¹½Âβ¹ÅÙ£³	=	   26.7	[¡î]
£¶£Â	¹½Âβ¹ÅÙ£´	=	   20.5	[¡î]
£¶£Ã	£Â¥»¥ë²¹ÅÙ	=	   21.7	[¡î]
¡¡¡¡¡¡	
 ==========================¡¡FO-29¡Ê¤Õ¤¸£³¹æ¡Ë¤ÎQSO¾ðÊóÅù¡¡======================
   
¡¡£³)[jamsat-bb:

 ===============================================================================
¡¡¡¡¡¡£´¡Ë£Ê£Á£Ò£Ì ¤Î¥Û¡¼¥à¥Ú¡¼¥¸¤Ë±¿ÍÑͽÄ꤬µ­ºÜ¤µ¤ì¤Æ¤¤¤Þ¤·¤¿¤Î¤Ç¤´¾Ò²ð¤·¤Þ¤¹¡¥
       ¡Ê http://www.jarl.or.jp/Japanese/3_Fuji/new/uy.htm ¡Ë

        ¢£ ¤Õ¤¸£³¹æ¡¿FO¡¼29/JAS-2 ¢£  
  ¡¡
¡¡¡¡¡¡¡¡¡¡¡ö¡ö¡ö¡¡±¿ÍÑͽÄê¤Ë¤Ä¤¤¤Æ¡¡¡ö¡ö¡ö

¡¡£··î£²Æü¡Ê·î¡Ë¡¡¡Á¡¡£±£°·î£±Æü¡Ê·î¡Ë¥¢¥Ê¥í¥°·Ï±¿ÍÑ 


¡¡¡¡¡ö¤Ê¤ª¡¤±¿ÍÑͽÄê¤ÏÅÔ¹ç¤Ë¤è¤êÊѹ¹¤¹¤ë¤³¤È¤¬¤¢¤ê¤Þ¤¹¤Î¤Çͽ¤á¤´Î»¾µ´ê¤¤¤Þ¤¹¡£

¡¡¾È²ñÀè¡¡¡§¡¡lab@jarl.or.jp

¡¡ºÇ¿·¤Î¾ðÊó¤Ï¥Æ¥ì¥Û¥ó¥µ¡¼¥Ó¥¹¡Ê£°£³¡Ý£³£¹£´£²¡Ý£±£°£°£°¡Ë¤ò¤ªÊ¹¤­¤¯¤À¤µ¤¤¡£¡¡¡¡
¡¡°Ê¸å¤Î±¿ÍѤˤĤ­¤Þ¤·¤Æ¤ÏÊ¿À®£±£³Ç¯£±£°·î¾å½Ü¤Ë¤ªÃΤ餻Ãפ·¤Þ¤¹¡£
¡¡¡¡¡¡¡¡
-----------------------    £Æ£Ï¡Ý£²£°¡ÊJAS-£±£â¡ËÆ»Í×ÁÇ   -------------------------
 ¡¡£µ¡Ë
 ¡¡¢£ µ°Æ»Í×ÁÇ£± ¡§½Ðŵ¤Ï£Æ£Ï-£²£¹¡Ö¤Õ¤¸£³¹æ¡×¤ËƱ¤¸¡¥
  
FO-20
1 20480U 90013C   01221.18536216 -.00000011  00000-0  46801-4 0  3322
2 20480  99.0544 279.6937 0539995 189.1461 169.9479 12.83295577538897
 
 ¡¡¢£ µ°Æ»Í×ÁÇ£² ¡§½Ðŵ¤Ï£Æ£Ï¡Ý£²£¹¡Ö¤Õ¤¸£³¹æ¡×¤ËƱ¤¸¡¥
               
Satellite: FO-20
Catalog number: 20480
Epoch time:      01221.18536216
Element set:     332
Inclination:       99.0544 deg
RA of node:       279.6937 deg
Eccentricity:    0.0539995
Arg of perigee:   189.1461 deg
Mean anomaly:     169.9479 deg
Mean motion:   12.83295577 rev/day
Decay rate:       -1.1e-07 rev/day^2
Epoch rev:           53889
Checksum:              347

¡¡--------------------------------------------------------------------------------
¡¡
¡¡        ¢£ ¤Õ¤¸£²¹æ¡¿£Æ£Ï¡Ý£²£°/JAS-1£â ¢£  ¡¡   
            
¡¡¡¡¡¡¡¡¡¡¡¡¡¡¡¡¡¡¡¡¡Ö¤Õ¤¸£²¹æ¡×¡¡¸½¶·                                                                                  
             
